User: anonymous   Login
Location: Nitra
(0.0000°N, 18.0833°E)
Time: 10:02:27
(UTC+01:00)
Language:

Nadezhda 4 Rocket - Orbit

View from above orbital plane
View from above orbital plane
View from above satellite
View from above satellite

Ground track
Ground track

The orbit data is extracted from the following two-line orbital elements,

1 23180U 94041B   23032.56556559 -.00000013  00000-0 -28068-4 0  9992
2 23180  82.9462 201.4914 0028257 219.5419 208.0725 13.78065330435566
Epoch (UTC): 01 February 2023 13:34:24
Eccentricity: 0.0028257
inclination: 82.9462°
perigee height: 950 km
apogee height: 991 km
right ascension of ascending node: 201.4914°
argument of perigee: 219.5419°
revolutions per day: 13.78065330
mean anomaly at epoch: 208.0725°
orbit number at epoch: 43556

The dashed part of the orbit path shows where the satellite is in the earth's shadow,  

DLR